SL-16 DEB, 22430

Orbit data source: Space-Track

SL-16 DEB, 22430 is space debris in LEO originally from a launch on Fri, 25 Dec 1992 UTC launched from the Tyuratam Missile And Space Complex (TTMTR). Debris objects in space refer to the collection of defunct objects orbiting the Earth. Examples of debris include non-operational satellites, rocket bodies, and fragments generated from explosions, collisions, or faulty payload assembly.

Loading next visibility...
Identifier
22430, 1992-093DX
Orbit
LEO
Country
Flag of CISCIS
Related business
Manufacturer
Unknown
Mission
Spacecraft
Bus & Motor
Unknown
Mass
Unknown
Launch date (UTC)
1992-12-25 (33 years ago)
Launch vehicle
Unknown
Launch site
Tyuratam Missile And Space Complex (TTMTR)
Object type
Payload
Rocket body
Debris
Shape & HBR
Unknown shape, 0.1 m
Radar Cross Section
Small (<0.1 m²)

Expand to show TLE details & history
Last TLE update: 12 hours ago

TLE from 12 hours ago
0 SL-16 DEB
1 22430U 92093DX  25349.83888250  .00000240  00000-0  19609-3 0  9993
2 22430  71.2359 234.1459 0116196 318.8098 111.7366 13.96007133674880
Epoch: 2025-12-15T20:07Z
TLE epoch observation values (Epoch: 2025-12-15T20:07:59.448Z)
Latitude
64.17673°
Longitude
-108.28648°
Altitude
950.385 km
Speed
7.366 km/s
True Right ascension
18h 33m 46s
True Declination
64° 02' 43"
Sunlit
Object was in daylight at epoch
Visualization orbit readout
Latitude
Unknown
Longitude
Unknown
Altitude
Unknown
Speed
Unknown
Apparent Right ascension
Unknown
Apparent Declination
Unknown
Sunlit
N/A
Visualization observer readout
Local Sidereal Time
06:19:48
Azimuth
Unknown
Elevation
Unknown
Doppler factor
Unknown
Orbital elements
Apogee altitude
990.209 km
Perigee altitude
820.941 km
Semi-major axis
7,283.712 km
Eccentricity
0.01162
Inclination
71.2359°
RAAN
234.1459°
Arg. of periapsis
318.8098°
True anomaly
112.96672°
Mean anomaly
111.7366°
Eccentric anomaly
112.35233°
Mean motion
3.49152 °/min
Orbital period
103.11 mins
BSTAR
0.00019609
Loading maneuver chart data...
Computing Atmospheric mass density...
Loading historical data...
Loading historical data...
Loading historical data...
Loading historical data...
Loading historical data...
Loading historical data...
Loading historical data...

Documentation

Showing up to 5 results
|